Regional Weather Roundup
Issued by NWS

Home | Current Version | Previous Version | Graphics & Text | Print | Product List | Glossary On
Versions: 1 2 3 4 5 6 7 8 9 10 11 12 13 14 15 16 17 18 19 20 21 22 23 24 25 26 27 28 29 30 31 32 33 34 35 36 37 38 39 40 41 42 43 44 45 46 47 48 49 50
000
ASUS43 KLSX 290559
RWRMO

WEATHER SUMMARY FOR MISSOURI
NATIONAL WEATHER SERVICE SPRINGFIELD MO
100 AM CDT FRI MAY 29 2015

NOTE: "FAIR" INDICATES FEW OR NO CLOUDS BELOW 12,000 FEET WITH NO
       SIGNIFICANT WEATHER AND/OR OBSTRUCTIONS TO VISIBILITY.
       CURRENT SKY AND/OR WEATHER CONDITIONS ARE NOT AVAILABLE FOR
       CHILLICOTHE AND FARMINGTON.

MOZ001>031-035>038-043-044-053-054-290700-
...NORTHERN AND WESTERN MISSOURI...

CITY           SKY/WX    TMP DP  RH WIND       PRES   REMARKS
KANSAS CTY INT MOCLDY    64  63  96 SE9       29.97F
6HR MIN TEMP:  64; 6HR MAX TEMP:  72;

KANSAS C DTWN  MOCLDY    67  62  84 SE7       29.97F
6HR MIN TEMP:  67; 6HR MAX TEMP:  74;

LEE`S SUMMIT   MOCLDY    64  61  90 SE5       29.99F
6HR MIN TEMP:  64; 6HR MAX TEMP:  71;

ST JOSEPH      PTCLDY    66  64  93 S9        29.97S
6HR MIN TEMP:  66; 6HR MAX TEMP:  74;

CHILLICOTHE      N/A     67  65  93 S3        29.99F
6HR MIN TEMP:  67; 6HR MAX TEMP:  71;

KIRKSVILLE     CLOUDY    65  64  97 SE5       30.00F
6HR MIN TEMP:  65; 6HR MAX TEMP:  66; 6HR PCP:  0.01;


$$
MOZ066>068-077>081-088>096-101>105-290700-
...SOUTHWEST MISSOURI...

CITY           SKY/WX    TMP DP  RH WIND       PRES   REMARKS
SPRINGFIELD    MOCLDY    67  63  87 S10       30.02F
6HR MIN TEMP:  67; 6HR MAX TEMP:  71;

JOPLIN         MOCLDY    69  65  86 SE10      29.97F
6HR MIN TEMP:  67; 6HR MAX TEMP:  76;


$$
MOZ032>034-039>042-045>050-055>058-069>072-290700-
...CENTRAL MISSOURI...

CITY           SKY/WX    TMP DP  RH WIND       PRES   REMARKS
COLUMBIA       CLOUDY    67  65  93 SE16      29.99F
6HR MIN TEMP:  66; 6HR MAX TEMP:  72; 6HR PCP:  0.25;

JEFFERSON CITY CLOUDY    68  64  87 SE13      30.00F
6HR MIN TEMP:  68; 6HR MAX TEMP:  71; 6HR PCP:  0.02;

ROLLA          CLOUDY    68  67  96 S9        30.01F
6HR MIN TEMP:  68; 6HR MAX TEMP:  74; 6HR PCP:  0.07;

SEDALIA        CLOUDY    67  65  93 SE5       30.00F
6HR MIN TEMP:  67; 6HR MAX TEMP:  71;

OSAGE BEACH    MOCLDY    64  63  94 S5        30.01F

$$
MOZ051-052-059>065-290700-
...EAST CENTRAL MISSOURI...

CITY           SKY/WX    TMP DP  RH WIND       PRES   REMARKS
ST LOUIS INTL  MOCLDY    74  64  71 S10       30.05S
6HR MIN TEMP:  74; 6HR MAX TEMP:  82;

SPIRIT OF STL  MOCLDY   N/A N/A N/A CALM      30.03S
ST CHARLES     PTCLDY    68  64  87 SE3       30.03S
6HR MIN TEMP:  67; 6HR MAX TEMP:  76;


$$
MOZ072>076-082>087-097>100-106>115-290700-
...SOUTH CENTRAL AND SOUTHEAST MISSOURI...

CITY           SKY/WX    TMP DP  RH WIND       PRES   REMARKS
CAPE GIRARDEAU CLEAR     70  66  87 S3        30.07S
6HR MIN TEMP:  69; 6HR MAX TEMP:  78;

FARMINGTON     MOCLDY    70  64  83 S10       30.11S
6HR MIN TEMP:  70; 6HR MAX TEMP:  75;

POPLAR BLUFF   CLOUDY    73  67  81 S7        30.06S
6HR MIN TEMP:  72; 6HR MAX TEMP:  76;

WEST PLAINS    CLOUDY    69  63  81 S7        30.07F
6HR MIN TEMP:  69; 6HR MAX TEMP:  74; 6HR PCP:  0.01;


$$


USA.gov is the U.S. government's official web portal to all federal, state and local government web resources and services.